Cloud_Cover
5 4 41 100 88 88 100 100 100 100 100 100 100 100 100 100 100 30 54 66 5 6 5 1 0 0 0 0 0 0 0 0 0 0 0 1 0 11 2 0 0 0 6 0 0 0 5 6 19
5 5 61 85 100 100 100 100 100 100 82 51 89 100 100 100 72 52 70 64 8 5 4 0 0 0 0 0 0 0 0 0 0 0 0 0 1 2 0 1 2 1 2 0 0 2 4 10 20
5 62 56 96 100 100 100 100 100 100 100 100 8 11 76 94 61 9 30 65 12 0 0 2 0 0 0 0 0 0 0 0 0 0 0 0 0 2 0 0 0 9 3 4 0 0 0 2 5
40 100 50 75 100 100 100 100 100 16 39 95 54 0 8 6 5 7 11 2 0 0 0 0 1 0 0 0 0 0 0 0 0 0 0 0 16 7 0 4 5 4 0 0 0 3 3 5 75
100 41 88 100 94 100 100 100 100 13 5 0 10 7 41 35 5 20 2 0 0 0 0 16 0 0 0 0 0 0 0 0 0 0 1 9 10 5 4 12 7 5 14 0 0 0 0 5 5
59 100 100 100 100 100 100 100 93 94 0 0 0 4 56 4 5 5 4 0 0 0 0 8 0 0 0 0 0 0 0 0 0 0 6 3 6 0 0 0 0 0 0 0 0 0 0 5 5
7 87 100 100 100 100 99 100 92 25 1 2 0 20 86 0 4 0 6 0 0 0 0 0 0 0 0 0 0 0 0 0 0 0 0 0 0 0 0 0 0 0 0 0 0 0 0 1 2
4 11 94 100 100 100 100 100 10 2 5 0 0 55 86 0 3 1 0 0 0 0 0 0 0 0 0 0 0 0 0 0 0 0 0 0 0 0 0 6 36 5 3 0 0 0 0 0 0
10 50 95 100 100 100 100 100 46 0 2 5 17 0 10 73 2 17 0 30 0 0 0 0 0 0 0 0 0 0 0 23 100 11 0 0 0 0 2 5 5 98 100 5 7 0 0 3 0
51 10 6 100 100 84 80 100 9 4 5 3 5 2 8 7 5 2 0 23 1 4 0 0 0 0 0 0 0 0 2 98 100 7 0 0 0 4 5 19 91 100 100 100 15 48 59 2 3
18 0 1 16 100 99 98 56 78 7 73 96 40 22 45 8 5 78 9 0 0 0 0 0 0 0 0 0 0 0 80 28 90 2 0 0 0 5 5 84 72 100 100 100 50 2 2 98 0
29 83 44 83 98 44 86 7 98 100 56 57 36 55 77 96 5 25 46 62 0 0 0 0 0 0 0 0 0 0 18 93 64 5 6 70 9 82 12 35 99 100 100 100 47 1 89 62 0
93 19 81 93 100 88 71 91 100 94 5 91 84 34 49 5 7 35 94 45 14 0 0 0 0 0 0 0 0 0 1 1 57 48 87 79 42 2 4 19 4 73 4 1 5 41 5 5 3
1 8 100 100 100 19 65 100 45 51 5 8 21 39 41 78 93 100 5 39 74 0 0 0 0 0 16 53 0 2 0 6 8 12 0 8 37 66 3 0 23 1 0 0 2 3 10 5 6
7 100 100 70 98 11 99 85 100 33 56 9 96 10 11 11 96 3 0 0 0 0 28 0 0 0 0 0 0 98 16 22 95 33 0 0 0 3 75 0 4 52 0 41 32 94 18 81 5
12 100 84 100 89 92 79 43 36 100 100 80 100 9 0 2 0 0 0 0 0 0 41 21 0 0 0 0 0 0 0 63 0 0 0 6 86 7 0 9 4 8 56 4 59 26 34 50 90
4 5 7 4 91 100 76 89 100 98 100 100 100 76 30 53 0 0 0 0 0 0 0 0 0 0 0 0 0 0 0 0 0 0 5 15 62 20 0 3 0 1 0 10 0 2 53 8 51
0 4 7 2 5 21 57 100 99 100 100 99 100 97 90 5 0 0 3 99 8 0 0 0 0 0 0 0 0 0 0 0 0 0 5 96 87 1 0 0 22 0 56 46 0 29 0 1 4
0 2 55 0 47 100 91 5 5 98 100 100 100 100 63 49 0 42 1 7 0 0 0 0 0 0 0 0 0 0 0 0 0 0 0 0 5 30 0 0 0 8 4 0 0 0 0 44 0
0 4 31 4 36 100 96 74 6 94 97 100 100 100 100 100 56 88 84 4 0 0 0 0 0 0 0 0 0 0 0 0 0 1 2 1 5 5 0 0 6 6 0 0 0 0 25 0 0
0 0 0 3 99 98 96 100 32 46 100 100 100 100 40 100 25 0 0 0 0 0 0 0 0 0 0 0 0 0 0 0 0 0 5 0 3 5 0 0 0 15 0 0 0 0 0 15 0
0 0 0 0 89 66 79 100 86 87 100 100 100 66 40 16 0 0 0 0 0 0 0 0 0 0 0 0 0 0 0 0 0 0 0 0 0 1 0 0 0 0 0 0 8 0 0 0 0
0 0 0 0 68 100 9 81 74 79 63 100 100 100 70 1 4 0 0 0 0 0 0 0 0 0 0 0 0 0 0 0 0 0 0 0 0 0 0 0 0 0 0 0 0 0 0 0 0
0 0 0 1 78 93 40 97 93 70 2 88 100 100 62 6 0 0 0 0 0 0 0 0 0 0 0 0 0 0 0 0 0 0 0 0 0 0 0 0 0 0 0 0 0 0 3 0 0
0 0 0 3 6 18 2 89 2 84 12 1 1 45 2 4 4 0 0 0 0 0 0 0 0 0 0 0 0 0 0 0 0 0 0 0 0 0 0 0 0 0 0 0 0 0 0 0 1
0 0 0 0 0 0 2 5 0 4 100 96 90 11 8 5 3 0 0 0 0 0 0 0 0 0 0 0 0 0 0 0 0 0 0 0 0 0 0 0 0 0 0 0 0 0 2 1 0
0 0 0 0 0 0 0 0 0 0 16 85 59 100 5 5 1 0 0 0 0 0 0 0 0 0 0 0 0 0 0 0 0 0 0 0 0 0 0 0 0 0 3 10 5 5 3 5 0
0 0 0 0 0 0 0 0 0 0 0 5 6 43 100 16 0 0 0 0 0 0 0 0 0 0 0 0 0 0 0 0 0 0 0 0 0 0 0 0 0 0 100 100 88 6 5 5 2
0 0 0 0 0 0 0 0 0 0 0 0 0 4 2 7 5 0 0 0 0 0 0 0 0 0 0 0 0 0 0 0 0 0 0 0 0 0 0 0 0 0 38 11 96 89 82 78 5
1 0 0 0 0 0 0 0 0 0 0 3 0 0 0 5 2 0 0 0 0 0 0 0 0 0 0 0 0 0 0 1 0 0 0 0 0 0 0 0 0 0 0 0 33 99 100 0 0